Location: *
(52.1000°S, 175.8500°E)
Time: 15:43:42
(UTC+00:00)

Daily predictions for brighter satellites

Satellite Brightness Start Highest point End
(mag) Time Altitude Azimuth Time Altitude Azimuth Time Altitude Azimuth
NOSS 3-4 (A) 4.5 14:11:13 56° SSE 14:11:13 56° SSE 14:17:13 10° SE
NOSS 3-4 (C) 4.5 14:11:20 56° SSE 14:11:20 56° SSE 14:17:19 10° SE
SL-16 R/B 3.9 14:08:24 10° SSE 14:13:18 32° E 14:13:18 32° E
Cosmos 1697 Rocket 4.3 14:23:38 30° SSE 14:23:38 30° SSE 14:26:25 10° SSE
SL-16 R/B 3.8 14:36:21 30° E 14:36:21 30° E 14:40:10 10° SE
BREEZE-M DEB (TANK) 4.5 14:39:40 46° ENE 14:39:40 46° ENE 14:49:32 10° ENE
ATLAS 2AS CENTAUR R/B 3.5 14:40:58 40° S 14:40:58 40° S 14:45:45 10° SE
USA 215 4.0 14:33:48 10° ENE 14:38:08 45° ENE 14:38:08 45° ENE
Cosmos 2360 Rocket 4.3 14:41:47 18° ENE 14:42:28 19° E 14:46:19 10° ESE
NOSS 3-1 (C) 4.4 14:41:23 39° S 14:43:01 46° SSE 14:48:48 10° E
Cosmos 2322 Rocket 3.6 14:46:00 32° E 14:46:00 32° E 14:50:12 10° SE
Cosmos 1980 Rocket 3.3 14:50:59 41° SSE 14:50:59 41° SSE 14:54:41 10° SSE
Nadezhda 4 Rocket 4.5 14:46:07 10° S 14:51:32 56° SE 14:51:32 56° SE
Cosmos 2278 Rocket 4.5 15:01:49 10° SSW 15:06:10 21° SSE 15:10:29 10° E
Cosmos 2034 Rocket 4.2 15:11:44 65° E 15:11:51 65° E 15:18:05 10° SSE
COSMOS 2455 4.3 15:21:36 27° SSW 15:21:44 27° SSW 15:26:51 10° SSE
Cosmos 1066 Rocket 4.4 15:28:26 10° S 15:34:01 69° ESE 15:35:34 47° NE
Meteor 1-23 Rocket 4.2 15:33:15 10° S 15:38:57 79° ESE 15:39:31 71° NE
SL-08 R/B 3.9 15:42:14 10° SSE 15:46:53 53° E 15:47:27 50° NE
Cosmos 1844 Rocket 2.5 15:42:42 10° SSW 15:48:22 90° SE 15:54:01 10° NNE
H-2A R/B 4.3 15:50:54 23° S 15:50:54 23° S 15:52:32 10° S
Cosmos 1908 Rocket 4.4 15:49:23 44° ENE 15:49:55 46° E 15:54:13 10° SSE
Cosmos 2195 Rocket 4.4 15:46:16 10° S 15:52:33 87° E 15:57:32 16° N
Cosmos 1733 Rocket 4.0 15:54:01 42° S 15:54:01 42° S 15:57:06 10° S
STARLINK-1102 4.4 15:55:23 53° ESE 15:55:23 53° ESE 15:58:42 10° E
USA 229 DEB 3.6 15:50:13 17° SW 15:55:50 83° SE 16:02:30 10° NE
USA 229 3.7 15:50:17 17° SW 15:55:58 82° SE 16:02:38 10° NE
ATLAS CENTAUR R/B 2.1 15:57:28 52° SE 15:57:28 52° SE 16:00:49 10° SE
STARLINK-1117 4.5 15:58:27 46° ENE 15:58:27 46° ENE 16:01:29 10° ENE
SL-16 R/B 2.6 15:51:47 10° S 15:57:59 58° WSW 15:58:23 57° W
CZ-4C R/B 2.9 15:56:04 44° NNW 15:58:43 72° NE 16:05:28 10° SE
STARLINK-1111 4.2 16:00:09 59° ESE 16:00:09 59° ESE 16:03:40 10° E
CZ-2C R/B 4.1 16:03:03 21° SSW 16:03:03 21° SSW 16:04:52 10° SSW
STARLINK-1078 4.3 16:03:13 51° ENE 16:03:13 51° ENE 16:06:27 10° ENE
STARLINK-1073 4.0 16:04:57 65° ESE 16:04:57 65° ESE 16:08:40 10° E
Cosmos 2056 Rocket 3.8 15:59:11 10° SSW 16:04:39 70° ESE 16:10:07 10° NNE
NOSS 3-1 (A) 3.6 15:59:20 13° SW 16:05:35 71° SE 16:11:23 10° ENE
Cosmos 1697 Rocket 4.3 16:05:22 21° SW 16:05:43 21° SSW 16:10:02 10° SSE
ERBS 4.2 16:07:06 28° ENE 16:07:06 28° ENE 16:09:23 10° ESE
STARLINK-1108 4.1 16:08:01 57° ENE 16:08:01 57° ENE 16:11:26 10° ENE
Cosmos 1743 3.6 16:07:20 44° NE 16:07:57 49° E 16:11:48 10° SSE
SJ-12 4.5 16:04:24 10° NNE 16:08:26 58° ESE 16:12:33 10° S
Cosmos 1464 Rocket 4.4 16:08:58 43° WSW 16:08:58 43° WSW 16:15:00 10° S
STARLINK-1121 3.8 16:09:44 72° SE 16:09:44 72° SE 16:13:40 10° E
Cosmos 1666 4.0 16:11:54 33° S 16:11:54 33° S 16:14:14 10° S
ALOS 2.4 16:06:24 10° NNE 16:11:07 74° ESE 16:15:52 10° S
STARLINK-1071 3.9 16:12:47 62° NE 16:12:47 62° NE 16:16:23 10° ENE
STARLINK-1106 3.7 16:14:32 77° SSE 16:14:32 77° SSE 16:18:39 10° E
STARLINK-1110 3.7 16:17:34 67° NNE 16:17:34 67° NNE 16:21:22 10° ENE
Cosmos 1842 4.4 16:13:50 10° S 16:17:39 44° ESE 16:21:26 10° NNE
METEOR-M 4.1 16:12:23 10° NNE 16:17:48 84° ESE 16:23:16 10° SSW
SL-16 R/B 2.4 16:18:14 50° W 16:18:59 54° SW 16:24:38 10° SSE
STARLINK-1112 3.6 16:19:18 78° SSW 16:19:23 78° S 16:23:37 10° E
FENGYUN 3A 3.6 16:14:49 10° NNE 16:20:15 90° N 16:25:47 10° SSW
PSLV R/B 4.0 16:16:55 10° NNE 16:20:46 67° ESE 16:24:36 10° S
Cosmos 1092 Rocket 4.1 16:14:52 10° SSW 16:21:03 55° W 16:23:33 35° NNW
STARLINK-1124 3.6 16:22:22 70° N 16:22:22 70° N 16:26:21 10° ENE
USA 215 3.5 16:17:26 10° NNE 16:23:46 48° NW 16:25:30 40° W
Okean O Rocket 3.0 16:20:08 10° NE 16:24:21 40° ESE 16:28:36 10° S
STARLINK-1128 3.6 16:24:04 73° SW 16:24:22 79° S 16:28:37 10° E
Cosmos 923 Rocket 3.9 16:22:48 46° NNW 16:24:27 87° WSW 16:29:51 10° SSE
Cosmos 2360 Rocket 2.1 16:23:35 41° NNW 16:25:43 89° SSW 16:31:30 10° SSE
Cosmos 1975 Rocket 3.1 16:21:51 10° S 16:26:19 80° E 16:30:42 10° NNE
CZ-4B DEB 4.4 16:21:09 10° NNE 16:26:45 75° ESE 16:32:25 10° SSW
STARLINK-1122 3.6 16:27:08 69° NNW 16:27:08 69° NNW 16:31:18 10° ENE
Cosmos 2322 Rocket 2.4 16:27:50 46° W 16:28:58 53° SW 16:34:36 10° SSE
STARLINK-1113 3.6 16:28:52 67° WSW 16:29:22 79° S 16:33:37 10° E
H-2A R/B 2.1 16:24:44 10° SSE 16:29:23 88° ENE 16:31:14 37° NNW
ATLAS 2AS CENTAUR R/B 3.9 16:28:24 18° SW 16:32:00 29° S 16:37:39 10° ESE
STARLINK-1126 3.6 16:31:55 66° NW 16:32:04 66° NNW 16:36:15 10° ENE
Cosmos 2333 Rocket 3.2 16:28:05 10° N 16:33:32 46° ENE 16:39:04 10° SE
Cosmos 1980 Rocket 3.6 16:32:46 22° SW 16:33:51 23° SW 16:38:23 10° SSE
STARLINK-1228 4.3 16:34:29 29° NE 16:34:29 29° NE 16:36:45 10° E
NOSS 3-1 (C) 3.3 16:28:55 16° SW 16:34:13 64° NW 16:39:49 10° NNE
STARLINK-1119 3.6 16:33:38 60° WSW 16:34:20 80° S 16:38:35 10° E
Cosmos 2026 Rocket 4.0 16:29:10 10° SSW 16:35:28 58° W 16:41:38 10° N
Meteor 2-13 Rocket 4.3 16:29:58 10° SSW 16:36:11 71° W 16:42:16 10° N
STARLINK-1082 3.6 16:36:43 60° NW 16:37:03 63° NNW 16:41:13 10° ENE
ERS-2 3.2 16:35:03 10° S 16:37:40 33° SSW 16:37:40 33° SSW
STARLINK-1114 3.6 16:38:25 54° WSW 16:39:20 81° S 16:43:34 10° E
ISS -3.8 16:39:48 84° NNW 16:39:50 85° N 16:43:19 10° E
Cosmos 1452 Rocket 4.2 16:35:01 10° SSW 16:40:18 55° ESE 16:45:30 10° NE
CZ-4C R/B 2.9 16:37:53 10° S 16:41:36 76° WSW 16:42:02 64° NW
NOAA 6 4.3 16:36:42 10° NNE 16:41:54 72° ESE 16:47:10 10° SSW
STARLINK-1100 3.7 16:41:29 55° WNW 16:42:00 60° NNW 16:46:09 10° NE
Cosmos 1536 4.2 16:43:30 25° SW 16:43:30 25° SW 16:45:58 10° S
Cosmos 1680 Rocket 3.5 16:39:47 30° NNW 16:42:32 81° WSW 16:47:58 10° SSE
STARLINK-1233 4.3 16:42:40 29° NNE 16:43:01 29° NNE 16:45:52 10° E
Cosmos 1634 Rocket 4.0 16:38:53 21° NNW 16:43:16 66° WSW 16:49:40 10° S
STARLINK-1212 4.3 16:43:05 29° NNE 16:43:27 30° NNE 16:46:19 10° E
STARLINK-1105 4.3 16:43:32 29° NNE 16:43:55 30° NNE 16:46:46 10° E
STARLINK-1130 (DARKSAT) 3.6 16:43:13 49° WSW 16:44:19 83° S 16:48:33 10° E
STARLINK-1206 4.3 16:43:56 29° NNE 16:44:22 30° NNE 16:47:14 10° E
STARLINK-1247 4.3 16:44:22 29° NNE 16:44:48 30° NNE 16:47:41 10° E
STARLINK-1227 4.3 16:44:50 29° NNE 16:45:16 30° NNE 16:48:08 10° E
CZ-4B R/B 3.8 16:46:32 35° WSW 16:46:32 35° WSW 16:49:38 10° SSW
STARLINK-1218 4.3 16:45:15 29° NNE 16:45:42 31° NNE 16:48:35 10° E
STARLINK-1226 4.2 16:45:41 29° NNE 16:46:09 31° NNE 16:49:02 10° E
STARLINK-1254 4.2 16:46:08 29° NNE 16:46:37 31° NNE 16:49:29 10° E
STARLINK-1083 3.7 16:46:15 50° WNW 16:46:58 58° NNW 16:51:06 10° NE
STARLINK-1215 4.2 16:46:32 29° NNE 16:47:02 31° NNE 16:49:56 10° E
STARLINK-1231 4.2 16:46:58 29° N 16:47:30 31° NNE 16:50:24 10° E
CZ-3A R/B 3.6 16:44:04 28° W 16:47:30 70° S 16:55:20 10° E
STARLINK-1232 4.2 16:47:50 30° N 16:48:24 32° NNE 16:51:18 10° E
STARLINK-1217 4.2 16:48:17 30° N 16:48:50 32° NNE 16:51:45 10° E
Cosmos 1378 4.2 16:45:35 10° SSW 16:47:48 30° SW 16:47:48 30° SW
STARLINK-1208 4.2 16:48:44 30° N 16:49:18 32° NNE 16:52:13 10° E
STARLINK-1084 3.6 16:48:01 44° WSW 16:49:19 84° S 16:53:33 10° E
STARLINK-1229 4.2 16:49:07 30° N 16:49:43 32° NNE 16:52:39 10° E
STARLINK-1271 4.2 16:49:35 30° N 16:50:11 33° NNE 16:53:07 10° E
STARLINK-67 3.2 16:50:29 46° NE 16:50:29 46° NE 16:52:48 10° E
STARLINK-1234 3.7 16:50:12 37° N 16:50:35 39° NNE 16:53:32 10° E
STARLINK-1270 4.2 16:50:01 30° N 16:50:38 33° NNE 16:53:34 10° E
Cosmos 2266 Rocket 4.3 16:44:27 10° S 16:50:39 71° ESE 16:56:54 10° NNE
Meteor 1-11 Rocket 4.4 16:49:34 32° W 16:50:50 35° WSW 16:56:07 10° S
STARLINK-1154 4.1 16:50:26 30° N 16:51:05 33° NNE 16:54:00 10° E
Cosmos 2278 Rocket 2.5 16:45:33 10° SSW 16:51:19 71° ESE 16:57:00 10° NE
STARLINK-1125 3.8 16:51:02 45° WNW 16:51:55 55° NNW 16:56:02 10° NE
STARLINK-1197 4.1 16:51:18 30° N 16:51:58 33° NNE 16:54:55 10° E
STARLINK-1189 4.1 16:51:44 30° N 16:52:26 34° NNE 16:55:22 10° E
STARLINK-1198 4.1 16:52:10 30° N 16:52:52 34° NNE 16:55:49 10° E
STARLINK-1188 4.1 16:52:36 30° N 16:53:19 34° NNE 16:56:16 10° E
STARLINK-1209 3.6 16:53:10 39° N 16:53:36 42° NNE 16:56:34 10° E
STARLINK-1235 3.8 16:53:22 36° N 16:53:57 40° NNE 16:56:59 10° E
STARLINK-1098 3.6 16:52:48 39° WSW 16:54:18 86° S 16:58:33 10° E
STARLINK-1187 3.9 16:53:44 33° N 16:54:24 37° NNE 16:57:21 10° E
Cosmos 1844 4.1 16:49:54 10° SW 16:55:13 39° WNW 17:00:26 10° N
STARLINK-1199 4.1 16:54:32 30° N 16:55:19 35° NNE 16:58:16 10° E
STARLINK-1191 4.1 16:54:58 30° N 16:55:46 35° NNE 16:58:43 10° E
STARLINK-1210 4.1 16:55:25 30° N 16:56:13 35° NNE 16:59:11 10° E
CZ-4B R/B 3.4 16:50:38 10° NNE 16:56:21 83° ESE 17:02:05 10° SSW
STARLINK-1221 4.1 16:55:50 30° N 16:56:38 35° NNE 16:59:36 10° E
STARLINK-1109 3.9 16:55:50 40° WNW 16:56:55 52° NNW 17:01:00 10° NE
STARLINK-1219 4.1 16:56:16 30° N 16:57:07 36° NNE 17:00:04 10° E
STARLINK-1222 4.1 16:56:42 30° N 16:57:33 36° NNE 17:00:31 10° E
STARLINK-1211 4.1 16:57:08 30° N 16:58:00 36° NNE 17:00:59 10° E
STARLINK-1214 4.0 16:57:34 30° N 16:58:27 36° NNE 17:01:26 10° E
Cosmos 1655 Rocket 4.0 16:52:15 10° SSW 16:58:44 79° W 17:05:10 10° N
STARLINK-1245 4.0 16:57:58 29° N 16:58:53 37° NNE 17:01:53 10° E
STARLINK-1123 3.6 16:57:35 35° WSW 16:59:18 87° SSE 17:03:32 10° ENE
STARLINK-1238 4.0 16:58:26 29° N 16:59:21 37° NNE 17:02:19 10° E
STARLINK-1205 4.0 16:59:17 29° NNW 17:00:14 37° NNE 17:03:14 10° E
STARLINK-1204 4.0 16:59:42 29° NNW 17:00:41 38° NNE 17:03:41 10° E
Cosmos 2142 Rocket 4.4 16:54:32 10° NNW 17:00:41 65° WSW 17:06:53 10° S
Cosmos 405 Rocket 4.0 17:01:20 26° WSW 17:01:20 26° WSW 17:04:38 10° S
Cosmos 1782 Rocket 3.6 16:58:10 18° NNW 17:01:27 64° WSW 17:05:59 10° S
STARLINK-1091 3.9 17:00:35 36° WNW 17:01:50 49° NNW 17:05:54 10° NE
STARLINK-1097 3.6 17:02:20 32° WSW 17:04:15 89° SSE 17:08:29 10° ENE
H-2A R/B 3.5 17:00:30 10° NNE 17:04:22 56° ESE 17:08:16 10° S
Okean 2 3.7 17:00:48 10° SSW 17:04:53 44° W 17:08:54 10° NNW
STARLINK-1072 4.0 17:05:25 33° W 17:06:50 46° NNW 17:10:53 10° NE
Cosmos 1707 3.5 17:03:57 10° S 17:07:52 55° ESE 17:11:43 10° NNE
Cosmos 1689 Rocket 3.9 17:05:15 10° SSE 17:08:08 34° E 17:10:59 10° NNE
STARLINK-1201 3.9 17:06:57 26° NNW 17:08:20 41° NNE 17:11:29 10° E
STARLINK-1099 3.6 17:07:07 29° WSW 17:09:14 89° NNW 17:13:28 10° ENE
Meteor 2-9 Rocket 4.2 17:04:50 10° N 17:10:31 85° E 17:16:07 10° SSE
Meteor 1-28 Rocket 3.9 17:07:25 10° S 17:10:54 34° WSW 17:11:44 30° W
SL-8 R/B 4.0 17:08:30 26° WNW 17:11:03 57° N 17:15:51 10° E
Cosmos 2084 3.6 17:08:06 19° NNW 17:11:05 70° NE 17:15:23 10° SE
Cosmos 371 Rocket 3.6 17:06:24 10° SSW 17:11:22 70° ESE 17:16:15 10° NNE
Cosmos 1943 Rocket 4.3 17:07:04 10° SSW 17:11:40 24° SE 17:16:13 10° E
STARLINK-1096 4.1 17:10:13 30° W 17:11:49 44° NNW 17:15:49 10° NE
Cosmos 1025 Rocket 3.2 17:07:54 10° S 17:12:22 79° ESE 17:16:49 10° NNE
Cosmos 2369 Rocket 4.5 17:08:28 10° SSW 17:12:43 21° SSE 17:16:58 10° E
CZ-4B R/B 1.3 17:10:52 10° SSE 17:14:12 84° ENE 17:17:34 10° NNW
STARLINK-1104 3.6 17:11:54 26° WSW 17:14:13 86° NNW 17:18:27 10° ENE
CZ-4 R/B 4.3 17:13:00 10° ENE 17:16:06 20° ESE 17:19:13 10° SSE
STARLINK-1079 4.2 17:14:58 27° W 17:16:44 41° NNW 17:20:42 10° NE
STARLINK-1144 3.6 17:16:42 24° WSW 17:19:12 84° NNW 17:23:26 10° ENE
Cosmos 1271 Rocket 3.8 17:15:18 10° S 17:19:19 50° ESE 17:23:17 10° NNE
SJ-7 4.4 17:15:21 10° N 17:19:30 69° WNW 17:23:46 10° SSW
Cosmos 1975 3.0 17:15:39 10° NNW 17:19:43 53° WSW 17:23:51 10° S
STARLINK-1116 4.3 17:19:45 24° W 17:21:41 39° NNW 17:25:37 10° NE
Cosmos 1536 Rocket 3.6 17:19:28 10° SSW 17:24:00 87° W 17:28:31 10° N
STARLINK-1103 3.6 17:21:28 22° WSW 17:24:10 81° NNW 17:28:24 10° ENE
SL-08 R/B 4.4 17:20:34 10° S 17:24:27 26° WSW 17:26:25 20° W
Cosmos 2219 Rocket 2.2 17:19:58 10° NNW 17:25:38 86° WSW 17:31:24 10° SSE
Cosmos 2112 Rocket 4.4 17:22:05 16° NW 17:26:13 47° WSW 17:31:29 10° SSE
Helios 1A Rocket 3.0 17:23:56 10° NNE 17:28:06 88° ESE 17:32:21 10° SSW
STARLINK-1101 3.6 17:26:17 20° WSW 17:29:11 79° NNW 17:33:24 10° ENE
Landsat 5 4.1 17:25:18 10° S 17:29:21 36° WSW 17:32:40 13° NW
Meteor 1-21 4.4 17:25:47 10° SSW 17:31:16 49° W 17:36:44 10° NNW
Cosmos 1844 Rocket 3.9 17:29:37 16° WSW 17:31:30 18° W 17:35:11 10° NW
STARLINK-1094 4.4 17:29:18 20° W 17:31:36 35° NW 17:35:25 10° NNE
Cosmos 2279 Rocket 4.3 17:28:01 10° NW 17:34:04 47° WSW 17:40:12 10° S
STARLINK-1102 3.6 17:31:02 18° WSW 17:34:07 76° NNW 17:38:20 10° ENE
ATLAS CENTAUR R/B 2.9 17:33:40 15° WSW 17:36:03 24° SSW 17:39:42 10° SSE
NOAA 12 4.4 17:31:12 10° NNE 17:36:29 73° ESE 17:41:50 10° SSW
Cosmos 2292 Rocket 3.6 17:33:07 10° SSW 17:36:52 54° W 17:41:42 10° N
COSMOS 2428 2.7 17:31:22 10° NW 17:37:06 78° WSW 17:42:55 10° SSE
Cosmos 1420 Rocket 4.3 17:32:38 10° SW 17:37:42 45° WNW 17:42:43 10° N
Cosmos 2322 4.0 17:32:48 11° NW 17:38:15 52° SW 17:43:53 10° SSE
Cosmos 158 Rocket 4.4 17:34:19 13° WNW 17:38:22 40° SW 17:43:04 10° SSE
STARLINK-1111 3.7 17:35:49 16° WSW 17:39:06 73° NNW 17:43:18 10° ENE
SL-16 R/B 4.2 17:36:45 10° S 17:40:24 16° SW 17:43:28 12° WSW
STARLINK-1200 4.5 17:36:53 10° NW 17:40:56 47° NNE 17:45:01 10° ESE
Cosmos 332 Rocket 3.8 17:37:01 10° SSW 17:41:55 87° WNW 17:46:46 10° NNE
ERBS 2.5 17:40:05 18° W 17:42:30 60° SSW 17:45:54 10° ESE
Cosmos 2333 4.5 17:36:53 10° NW 17:42:32 53° SW 17:48:15 10° SSE
Cosmos 1743 4.2 17:42:28 16° W 17:44:01 19° WSW 17:46:55 10° SSW
STARLINK-1073 3.7 17:40:36 15° WSW 17:44:04 70° NNW 17:48:16 10° ENE
STARLINK-1192 4.4 17:41:48 10° NW 17:45:53 50° NNE 17:49:59 10° ESE
USA 229 DEB 4.4 17:40:24 10° WSW 17:46:07 29° WNW 17:51:35 10° N
USA 229 4.4 17:40:30 10° WSW 17:46:14 29° WNW 17:51:43 10° N
CZ-4C R/B 3.2 17:41:17 13° W 17:47:45 47° SSW 17:53:55 10° SE
Cosmos 1980 4.3 17:42:19 10° NNW 17:47:55 64° ENE 17:53:36 10° SE
STARLINK-1121 3.7 17:45:23 13° WSW 17:49:03 67° NNW 17:53:14 10° ENE
ALOS 3.7 17:45:55 10° NW 17:49:04 18° W 17:52:16 10° SW
BREEZE-M DEB (TANK) 3.5 17:46:47 15° W 17:49:09 55° N 17:56:34 10° ENE
Meteor 1-12 Rocket 4.2 17:43:41 10° NNW 17:49:25 82° WSW 17:55:12 10° SSE
Envisat 3.0 17:44:58 10° NNE 17:50:07 86° WNW 17:55:20 10° SSW
Cosmos 1242 Rocket 2.5 17:46:49 10° SSW 17:50:33 68° W 17:54:12 10° N
STARLINK-1244 4.3 17:46:45 10° NW 17:50:51 53° NNE 17:54:59 10° ESE
STARLINK-1106 3.8 17:50:11 12° WSW 17:54:01 64° NNW 17:58:12 10° ENE
AQUARIUS 4.2 17:50:09 10° N 17:54:41 66° WNW 17:59:16 10° SSW
Sich 1 Rocket 4.5 17:50:46 10° NW 17:54:50 31° WSW 17:58:59 10° S
STARLINK-1138 4.2 17:51:40 10° NW 17:55:48 56° NNE 17:59:57 10° ESE
NOSS 3-1 (A) 4.1 17:50:20 10° SW 17:55:55 31° WNW 18:00:49 10° N
SMAP 3.2 17:52:38 10° N 17:57:16 58° W 18:01:59 10° SSW
Okean 2 Rocket 3.5 17:53:04 10° NW 17:57:26 43° WSW 18:01:49 10° S
Cosmos 1544 4.1 17:54:22 10° NW 17:57:38 27° WSW 18:00:54 10° S
Cosmos 2151 Rocket 3.7 17:53:40 10° NNW 17:58:07 59° WSW 18:02:40 10° S
Cosmos 1300 Rocket 3.8 17:54:05 10° NNW 17:58:24 49° WSW 18:02:50 10° S
STARLINK-1112 3.8 17:54:57 11° WSW 17:58:58 61° NNW 18:03:08 10° NE
Cosmos 2098 Rocket 3.9 17:53:41 10° SSW 18:00:26 76° W 18:05:50 10° N
STARLINK-1143 4.2 17:56:36 10° NW 18:00:45 58° NNE 18:04:54 10° ESE
Okean O Rocket 2.5 17:56:49 10° NNW 18:00:48 30° W 18:04:49 10° SSW
CORIOLIS 4.2 17:58:25 10° N 18:03:47 64° WNW 18:09:12 10° SSW
STARLINK-1128 3.9 17:59:46 10° WSW 18:03:57 58° NNW 18:08:05 10° NE
SL-16 R/B 3.9 18:00:33 10° WSW 18:04:26 18° SSW 18:08:21 10° SSE
H-2A R/B 3.8 18:01:48 10° SSW 18:04:44 17° SW 18:07:39 10° W
SL-16 R/B 4.2 17:59:54 10° N 18:04:59 34° ENE 18:10:08 10° SE
STARLINK-1241 4.1 18:01:35 10° NW 18:05:45 62° NNE 18:09:56 10° ESE
STARLINK-1228 2.7 18:05:58 10° W 18:08:55 85° S 18:11:52 10° ESE
STARLINK-1113 3.9 18:04:46 10° WSW 18:08:56 56° NNW 18:13:03 10° NE
Cosmos 1048 Rocket 4.2 18:04:44 10° NNW 18:10:06 82° ENE 18:15:29 10° SSE
Cosmos 2360 Rocket 3.4 18:05:49 10° W 18:10:31 25° SW 18:15:15 10° SSE
STARLINK-1239 4.0 18:06:32 10° WNW 18:10:43 65° NNE 18:14:54 10° ESE
Cosmos 1331 Rocket 4.1 18:05:35 10° SSW 18:10:59 82° WNW 18:16:21 10° NNE
SL-24 DEB 4.3 18:08:24 10° N 18:13:13 77° W 18:18:04 10° S
COSMO-SKYMED 1 3.8 18:09:07 10° SSE 18:13:26 48° E 18:17:42 10° N
STARLINK-1119 4.0 18:09:45 10° WSW 18:13:53 53° NNW 18:17:59 10° NE
Cosmos 2322 Rocket 3.9 18:10:34 10° WSW 18:14:23 18° SSW 18:18:14 10° SSE
YAOGAN 6 2.6 18:11:04 10° N 18:14:37 60° W 18:18:13 10° SSW
STARLINK-1240 4.0 18:11:30 10° WNW 18:15:41 68° NNE 18:19:54 10° ESE
Cosmos 2333 Rocket 2.7 18:12:26 10° WNW 18:17:54 42° SW 18:23:28 10° SSE
